Voltar ao catálogo

ARIANE 44P R/B

AtivoGTO
NORAD 21223·ROCKET BODY·🇫🇷 France

Lançado Apr 4, 1991 de Guiana Space Centre

Loading…

TLE

EnvelhecendoSource: Space-Track

Época: Sep 14, 2026, 06:31 UTC

1 21223U 91026B   26257.27215598  .00000215  00000-0  83004-3 0  9995
2 21223   3.3525 182.9034 7173808  81.4348 347.0052  2.32344488274854

Acompanhe ARIANE 44P R/B em tempo real com AllMySat

Download on the App Store